Content
SEND FEEDBACK

Daily
Averages
Monthly
Summary
United States of America

NEW YORK - CENTRAL PARK, NEW YORK


Home > North America > United States > New York
Elevation: 14 feet     Latitude: 40 47N     Longitude: 073 58W

WEATHER
 
SELECT A DAY
Number of Records: 151,321;   Date Range: 11/1/95 - 10/24/14
 
SHARE

PRINT THIS DATA

[ ← Previous Day ]
WEATHER ALMANAC - FEBRUARY 2, 2013
[ Next Day → ]
[ °C ]   °F
Weather ElementAverageHighLow
Temperature24.1 °F28.9 °F (3:51 pm)19 °F (6:51 am)
Dewpoint10.5 °F19.9 °F (10:35 pm)3 °F (12:51 pm)
Humidity58.4 %84 % (10:35 pm)34 % (2:51 pm)
Barometer30.16 in30.30 in (7:51 am)30.06 in (11:51 pm)
Wind Speed5.3 mph10.4 mph (1:51 am)
Wind Gust20.7 mph (12:51 pm)
Weather ElementAverage
Visibility7.3 mi
Wind DirectionSSE (142.7 °)

Weather ElementTotal
Precipitation0.04 in
Heating Degree Days41.1 (Base 65)
Averaged from 30 records on February 2, 2013
WEATHER CONDITIONS BREAKOUT
WIND DIRECTION BREAKOUT
WEATHER BY HOUR - FEBRUARY 2, 2013
[ °C ]   °F
Local TimeTemperatureDewpointHumidityBarometerVisibilityWind DirectionWind SpeedGust SpeedPrecipitationEventsConditions
1:51 AM23.0 °F7.0 °F50 %30.24 in10.0 miWest (270°)10.4 mphPartly Cloudy
2:51 AM21.9 °F6.1 °F51 %30.26 in10.0 miWNW (300°)6.9 mph17.3 mphMostly Cloudy
3:51 AM21.0 °F6.1 °F53 %30.27 in10.0 miVariable3.5 mph16.1 mphClear
4:51 AM19.9 °F5.0 °F52 %30.27 in10.0 miWest (260°)8.1 mphClear
5:51 AM19.9 °F5.0 °F52 %30.27 in10.0 miWest (280°)6.9 mph17.3 mphClear
6:51 AM19.0 °F5.0 °F54 %30.27 in10.0 miWNW (290°)9.2 mphClear
7:51 AM19.0 °F5.0 °F54 %30.30 in10.0 miWest (260°)4.6 mphClear
8:51 AM19.9 °F6.1 °F55 %30.29 in10.0 miWest (280°)4.6 mphClear
9:51 AM21.9 °F6.1 °F51 %30.27 in10.0 miCalmClear
10:51 AM24.1 °F6.1 °F46 %30.25 in10.0 miWSW (250°)6.9 mphClear
11:51 AM26.1 °F6.1 °F43 %30.21 in10.0 miWest (280°)10.4 mph17.3 mphClear
12:51 PM27.0 °F3.0 °F36 %30.18 in10.0 miSW (230°)9.2 mph20.7 mphScattered Clouds
1:51 PM27.0 °F3.0 °F36 %30.15 in10.0 miNorthScattered Clouds
2:51 PM28.0 °F3.0 °F34 %30.13 in10.0 miWest (260°)9.2 mphOvercast
3:51 PM28.9 °F3.9 °F35 %30.11 in10.0 miVariable6.9 mph16.1 mphOvercast
4:51 PM28.0 °F5.0 °F38 %30.09 in10.0 miVariable3.5 mphOvercast
5:51 PM28.0 °F7.0 °F41 %30.09 in10.0 miNorthOvercast
6:51 PM27.0 °F7.0 °F43 %30.09 in10.0 miWest (270°)4.6 mphOvercast
7:51 PM27.0 °F10.0 °F49 %30.09 in10.0 miNorthOvercast
8:51 PM25.0 °F17.1 °F72 %30.09 in4.0 miNW (310°)4.6 mphHaze
9:05 PM24.1 °F19.0 °F81 %30.11 in2.0 miCalm0.00 inSnowLight Snow
9:23 PM24.1 °F19.0 °F81 %30.11 in3.0 miVariable3.5 mph0.00 inSnowLight Snow
9:51 PM24.1 °F19.0 °F81 %30.09 in2.5 miVariable3.5 mph0.00 inSnowLight Snow
9:55 PM24.1 °F19.0 °F81 %30.11 in1.8 miVariable6.9 mph0.00 inSnowLight Snow
10:17 PM24.1 °F19.0 °F81 %30.11 in1.5 miVariable3.5 mph0.01 inSnowLight Snow
10:35 PM24.1 °F19.9 °F84 %30.10 in2.5 miCalm0.01 inSnowLight Snow
10:51 PM24.1 °F19.0 °F81 %30.08 in2.5 miSW (230°)6.9 mph0.01 inSnowLight Snow
11:08 PM24.1 °F19.0 °F81 %30.09 in2.5 miWSW (250°)4.6 mph0.00 inSnowLight Snow
11:19 PM25.0 °F19.0 °F78 %30.09 in3.0 miCalm0.00 inSnowLight Snow
11:51 PM25.0 °F19.0 °F78 %30.06 in5.0 miWest (260°)3.5 mph0.01 inHaze
Hourly data recorded from KNYC, located miles away from New York - Central Park, New York







STORIES FROM OUR PARTNERS